"2003/01/01", 4.4, 4.7, 4.3
"2003/01/02", 4.4, 4.8, 3.9
"2003/01/03", 3.8, 4.3, 3.2
"2003/01/04", 4.1, 4.8, 3.4
"2003/01/05", 4.0, 4.5, 3.6
"2003/01/06", 3.6, 4.2, 3.3
"2003/01/07", 3.3, 3.7, 2.9
"2003/01/08", 3.5, 4.1, 2.9
"2003/01/09", 3.6, 3.9, 3.4
"2003/01/10", 3.7, 4.1, 3.4
"2003/01/11", 4.1, 4.8, 3.6
"2003/01/12", 4.0, 4.6, 3.6
"2003/01/13", 4.3, 5.0, 3.8
"2003/01/14", 4.6, 5.2, 4.1
"2003/01/15", 4.5, 4.9, 4.0
"2003/01/16", 4.0, 4.5, 3.3
"2003/01/17", 4.2, 4.7, 3.6
"2003/01/18", 4.1, 4.4, 3.8
"2003/01/19", 4.2, 4.3, 3.9
"2003/01/20", 4.5, 5.3, 4.0
"2003/01/21", 4.7, 5.7, 4.3
"2003/01/22", 4.4, 4.7, 3.9
"2003/01/23", 4.2, 4.3, 4.0
"2003/01/24", 4.0, 5.0, 3.4
"2003/01/25", 3.9, 4.6, 3.0
"2003/01/26", 4.2, 4.9, 3.7
"2003/01/27", 4.3, 4.6, 4.2
"2003/01/28", 4.8, 5.9, 4.3
"2003/01/29", 4.6, 5.2, 3.9
"2003/01/30", 3.8, 4.4, 3.4
"2003/01/31", 3.4, 4.1, 2.5
"2003/02/01", 3.5, 4.3, 2.8
"2003/02/02", 3.3, 3.5, 3.0
"2003/02/03", 3.5, 4.1, 3.1
"2003/02/04", 3.6, 3.8, 3.4
"2003/02/05", 3.7, 3.9, 3.5
"2003/02/06", 3.9, 4.4, 3.2
"2003/02/07", 4.2, 4.8, 3.6
"2003/02/08", 4.6, 5.3, 3.8
"2003/02/09", 5.0, 6.0, 4.5
"2003/02/10", 5.7, 7.6, 4.9
"2003/02/11", 6.0, 6.4, 5.6
"2003/02/12", 6.2, 6.6, 5.7
"2003/02/13", 5.7, 6.2, 5.3
"2003/02/14", 5.6, 6.0, 5.0
"2003/02/15", 5.8, 6.8, 5.3
"2003/02/16", 5.6, 5.9, 5.4
"2003/02/17", 6.0, 6.8, 5.2
"2003/02/18", 5.7, 6.1, 5.3
"2003/02/19", 5.5, 6.0, 5.2
"2003/02/20", 5.6, 5.7, 5.4
"2003/02/21", 6.0, 7.9, 4.6
"2003/02/22", 5.8, 6.4, 5.3
"2003/02/23", 5.7, 6.1, 5.5
"2003/02/24", 5.3, 5.5, 5.1
"2003/02/25", 5.3, 5.9, 4.7
"2003/02/26", 5.9, 6.7, 5.3
"2003/02/27", 6.3, 7.2, 5.9
"2003/02/28", 6.1, 7.8, 5.5
"2003/03/01", 5.9, 6.3, 5.5
"2003/03/02", 6.9, 8.7, 6.2
"2003/03/03", 7.2, 8.0, 6.8
"2003/03/04", 7.0, 7.7, 6.1
"2003/03/05", 6.6, 7.8, 5.2
"2003/03/06"," *"," *"," *"
"2003/03/07", 6.5, 7.0, 6.2
"2003/03/08", 7.0, 7.9, 6.2
"2003/03/09", 7.2, 8.8, 6.6
"2003/03/10", 7.6, 9.1, 6.8
"2003/03/11", 7.5, 8.4, 6.7
"2003/03/12", 8.0, 9.1, 7.2
"2003/03/13", 7.5, 8.8, 6.9
"2003/03/14", 7.3, 8.1, 6.7
"2003/03/15", 7.3, 7.6, 7.0
"2003/03/16", 7.6, 9.0, 6.8
"2003/03/17", 7.6, 8.1, 7.3
"2003/03/18", 7.6, 8.5, 7.0
"2003/03/19", 8.1, 8.9, 7.4
"2003/03/20", 8.4, 9.1, 7.8
"2003/03/21", 8.6, 9.5, 8.0
"2003/03/22", 8.0, 8.3, 7.8
"2003/03/23", 8.6,10.3, 7.8
"2003/03/24", 9.2,10.6, 8.3
"2003/03/25", 9.2, 9.9, 9.0
"2003/03/26",10.0,11.4, 9.0
"2003/03/27",11.2,12.6,10.1
"2003/03/28",11.6,12.4,10.5
"2003/03/29",10.9,11.5,10.0
"2003/03/30",10.5,11.4, 9.7
"2003/03/31",11.5,13.0,10.3
"2003/04/01",11.6,12.4,11.1
"2003/04/02",11.3,11.7,11.1
"2003/04/03",11.0,11.4,10.5
"2003/04/04",10.9,11.6,10.2
"2003/04/05",10.4,11.1, 9.8
"2003/04/06",10.4,11.7, 9.3
"2003/04/07",11.3,13.4,10.2
"2003/04/08",11.9,12.7,11.0
"2003/04/09",12.5,14.6,11.7
"2003/04/10",12.7,14.3,11.9
"2003/04/11",12.5,13.2,11.9
"2003/04/12",13.3,14.0,12.9
"2003/04/13",14.4,16.5,13.2
"2003/04/14",13.8,14.3,13.5
"2003/04/15",13.5,13.6,13.3
"2003/04/16",13.8,14.7,13.1
"2003/04/17",14.6,15.7,13.6
"2003/04/18",15.5,17.2,14.5
"2003/04/19",16.2,17.7,15.0
"2003/04/20",15.5,16.3,14.8
"2003/04/21",14.7,15.7,14.0
"2003/04/22",14.7,15.6,14.1
"2003/04/23",14.5,14.7,14.3
"2003/04/24",14.8,15.0,14.6
"2003/04/25",14.8,15.0,14.7
"2003/04/26",15.2,16.1,14.7
"2003/04/27",15.9,17.2,15.3
"2003/04/28",16.5,18.0,15.2
"2003/04/29",17.4,18.9,16.2
"2003/04/30",17.5,18.4,17.0
"2003/05/01",17.0,18.1,16.4
"2003/05/02",16.8,17.4,16.2
"2003/05/03",17.8,19.1,16.9
"2003/05/04",18.6,20.0,17.4
"2003/05/05",18.2,18.8,17.8
"2003/05/06",18.6,19.8,17.8
"2003/05/07",19.4,20.6,18.7
"2003/05/08",20.1,21.0,19.1
"2003/05/09",18.6,19.1,18.1
"2003/05/10",18.4,19.6,17.5
"2003/05/11",18.3,19.2,17.7
"2003/05/12",18.3,18.7,18.1
"2003/05/13",18.6,19.2,18.0
"2003/05/14",18.9,19.3,18.6
"2003/05/15",18.6,18.8,18.1
"2003/05/16",18.1,18.3,17.9
"2003/05/17",17.8,18.0,17.5
"2003/05/18",17.6,17.8,17.4
"2003/05/19",17.4,17.5,17.3
"2003/05/20",18.1,19.8,17.2
"2003/05/21",18.7,19.7,17.7
"2003/05/22",18.8,19.3,18.5
"2003/05/23",18.4,18.6,18.0
"2003/05/24",18.7,19.6,18.0
"2003/05/25",18.4,18.8,17.9
"2003/05/26",18.3,18.6,17.9
"2003/05/27",18.9,20.7,18.2
"2003/05/28",19.9,22.0,18.3
"2003/05/29",20.2,22.1,18.7
"2003/05/30",20.6,22.0,19.4
"2003/05/31",19.9,20.8,19.6
"2003/06/01",20.2,20.8,19.9
"2003/06/02",20.9,22.3,19.8
"2003/06/03",21.2,22.4,20.4
"2003/06/04",21.0,21.6,20.6
"2003/06/05",21.6,23.4,20.4
"2003/06/06",21.1,21.4,20.8
"2003/06/07",21.1,21.5,20.7
"2003/06/08",21.2,21.7,20.8
"2003/06/09",21.2,21.7,20.8
"2003/06/10",21.4,22.4,20.7
"2003/06/11",21.6,22.8,21.0
"2003/06/12",21.8,22.2,21.4
"2003/06/13",22.4,23.1,21.8
"2003/06/14",23.0,24.6,22.5
"2003/06/15",22.7,23.3,22.4
"2003/06/16",22.6,23.2,22.2
"2003/06/17",22.5,24.0,22.2
"2003/06/18",23.1,24.5,22.3
"2003/06/19",23.0,24.2,22.5
"2003/06/20",24.1,24.8,23.0
"2003/06/21",25.2,27.6,23.7
"2003/06/22",24.7,25.6,24.0
"2003/06/23",23.9,24.3,23.6
"2003/06/24",23.5,23.6,23.3
"2003/06/25",23.2,23.4,22.9
"2003/06/26",22.9,23.3,22.6
"2003/06/27",24.0,26.5,22.4
"2003/06/28",23.0,23.6,22.5
"2003/06/29",23.4,25.6,22.4
"2003/06/30",24.0,25.3,23.1
"2003/07/01",23.4,24.2,22.6
"2003/07/02",22.9,23.5,22.5
"2003/07/03",23.0,23.7,22.4
"2003/07/04",23.7,25.7,22.8
"2003/07/05",24.1,25.3,23.5
"2003/07/06",23.7,23.9,23.4
"2003/07/07",23.3,23.4,23.1
"2003/07/08",22.4,23.1,21.6
"2003/07/09",21.9,22.4,21.4
"2003/07/10",22.1,22.3,22.0
"2003/07/11",24.0,26.5,22.1
"2003/07/12",24.7,26.3,24.2
"2003/07/13",23.5,24.4,22.8
"2003/07/14",22.4,22.8,21.9
"2003/07/15",22.7,24.6,21.5
"2003/07/16",22.6,23.1,22.3
"2003/07/17",22.4,22.9,22.1
"2003/07/18",22.7,23.6,22.1
"2003/07/19",22.5,22.8,22.3
"2003/07/20",22.6,23.1,22.1
"2003/07/21",22.7,23.1,22.3
"2003/07/22",22.4,22.6,21.9
"2003/07/23",21.8,22.0,21.6
"2003/07/24",21.9,22.4,21.5
"2003/07/25",22.5,23.3,21.9
"2003/07/26",22.3,22.5,22.0
"2003/07/27",22.4,23.5,21.9
"2003/07/28",22.5,23.4,21.8
"2003/07/29",22.8,23.8,22.1
"2003/07/30",23.1,23.5,22.6
"2003/07/31",23.6,24.5,22.6
"2003/08/01",23.4,23.7,23.2
"2003/08/02",24.3,25.7,23.0
"2003/08/03",24.3,24.7,23.9
"2003/08/04",25.3,29.2,24.2
"2003/08/05",26.2,28.3,25.0
"2003/08/06",26.5,27.4,26.0
"2003/08/07",26.9,28.2,26.0
"2003/08/08",27.0,27.7,26.3
"2003/08/09",26.9,27.5,26.5
"2003/08/10",27.8,30.1,26.2
"2003/08/11",27.8,28.3,27.3
"2003/08/12",27.3,27.9,26.7
"2003/08/13",26.5,26.9,26.2
"2003/08/14",25.2,26.2,23.5
"2003/08/15",23.5,23.8,23.2
"2003/08/16",22.8,23.3,22.3
"2003/08/17",22.5,22.9,21.9
"2003/08/18",22.8,23.5,22.5
"2003/08/19",22.6,23.1,22.4
"2003/08/20",23.2,24.5,22.4
"2003/08/21",24.1,26.6,23.0
"2003/08/22",24.4,27.6,23.0
"2003/08/23",23.4,24.2,22.8
"2003/08/24",26.0,28.6,23.3
"2003/08/25",25.6,26.6,24.5
"2003/08/26",25.6,27.6,24.8
"2003/08/27",25.4,25.6,25.2
"2003/08/28",25.1,25.4,24.9
"2003/08/29",25.5,27.8,24.9
"2003/08/30",25.3,25.5,25.0
"2003/08/31",24.9,25.5,24.5
"2003/09/01",24.3,24.6,24.1
"2003/09/02",24.9,26.6,24.0
"2003/09/03",25.8,27.6,24.6
"2003/09/04",25.4,26.2,24.8
"2003/09/05",25.1,26.1,24.5
"2003/09/06",25.6,26.9,24.7
"2003/09/07",25.1,25.8,24.6
"2003/09/08",25.0,25.8,24.5
"2003/09/09",25.3,27.3,24.7
"2003/09/10",25.7,26.3,24.9
"2003/09/11",26.0,26.6,25.7
"2003/09/12",26.5,27.7,25.5
"2003/09/13",27.0,27.9,26.4
"2003/09/14",27.3,28.6,26.3
"2003/09/15",27.4,29.0,26.4
"2003/09/16",26.3,26.8,25.8
"2003/09/17",26.3,27.3,25.5
"2003/09/18",26.9,28.5,25.9
"2003/09/19",26.7,27.3,26.4
"2003/09/20",25.6,26.8,24.6
"2003/09/21",23.3,24.7,21.9
"2003/09/22",21.6,22.1,20.9
"2003/09/23",20.8,21.3,20.2
"2003/09/24",20.4,20.7,20.0
"2003/09/25",20.3,20.6,19.7
"2003/09/26",20.8,21.6,20.2
"2003/09/27",21.0,21.7,20.4
"2003/09/28",21.0,21.4,20.6
"2003/09/29",21.1,21.8,20.5
"2003/09/30",20.6,21.2,20.2
"2003/10/01",20.3,22.1,19.7
"2003/10/02",20.8,21.2,20.5
"2003/10/03",21.0,21.9,20.4
"2003/10/04",20.4,20.9,20.1
"2003/10/05",20.2,20.9,19.8
"2003/10/06",19.6,20.0,19.3
"2003/10/07",19.1,19.3,18.8
"2003/10/08",18.5,18.8,17.8
"2003/10/09",17.9,18.3,17.6
"2003/10/10",17.9,18.2,17.6
"2003/10/11",18.1,18.4,17.7
"2003/10/12",18.6,19.5,18.2
"2003/10/13",19.4,20.4,18.5
"2003/10/14",18.8,19.3,18.2
"2003/10/15",18.2,18.9,17.2
"2003/10/16",18.2,18.6,17.9
"2003/10/17",17.8,18.1,17.5
"2003/10/18",17.3,17.6,17.1
"2003/10/19",17.6,19.0,16.6
"2003/10/20",17.3,17.6,17.0
"2003/10/21",17.2,17.9,16.2
"2003/10/22",17.5,17.6,17.3
"2003/10/23",17.7,18.9,17.2
"2003/10/24",17.6,18.7,17.0
"2003/10/25",17.1,17.4,16.8
"2003/10/26",16.8,17.1,16.4
"2003/10/27"," *"," *"," *"
"2003/10/28",16.2,16.3,16.0
"2003/10/29",16.6,17.3,16.1
"2003/10/30",17.3,18.9,16.1
"2003/10/31",16.8,17.6,16.2
"2003/11/01",16.9,17.2,16.6
"2003/11/02",17.4,18.3,16.8
"2003/11/03",17.4,17.6,17.1
"2003/11/04",17.3,17.6,16.8
"2003/11/05",17.1,17.9,16.5
"2003/11/06",17.5,18.0,17.0
"2003/11/07",17.3,17.5,17.1
"2003/11/08",17.3,17.9,17.0
"2003/11/09",16.8,17.2,16.4
"2003/11/10",16.1,16.4,15.6
"2003/11/11",15.0,15.6,14.7
"2003/11/12",14.9,15.2,14.7
"2003/11/13",14.7,14.9,14.3
"2003/11/14",14.6,15.4,13.9
"2003/11/15",14.3,14.5,14.1
"2003/11/16",14.8,15.8,14.2
"2003/11/17",14.7,15.4,13.9
"2003/11/18",14.4,15.4,13.6
"2003/11/19",14.2,14.5,13.9
"2003/11/20",13.9,14.1,13.8
"2003/11/21",13.9,14.4,13.4
"2003/11/22",14.5,15.3,14.1
"2003/11/23",13.8,14.3,13.3
"2003/11/24",13.0,13.3,12.6
"2003/11/25",12.8,13.0,12.6
"2003/11/26",12.6,12.9,12.3
"2003/11/27",11.8,12.3,11.5
"2003/11/28",11.6,11.8,11.3
"2003/11/29",11.7,12.0,11.6
"2003/11/30",12.2,12.4,11.9
"2003/12/01",12.2,12.5,12.0
"2003/12/02",12.0,12.5,11.6
"2003/12/03",11.7,12.1,11.5
"2003/12/04",11.7,12.5,11.0
"2003/12/05",11.0,11.4,10.7
"2003/12/06",10.7,10.9,10.0
"2003/12/07",10.7,11.0,10.4
"2003/12/08",10.6,11.1,10.0
"2003/12/09",10.3,10.6, 9.8
"2003/12/10",10.0,10.9, 9.5
"2003/12/11", 9.5, 9.9, 8.9
"2003/12/12", 9.0, 9.3, 8.5
"2003/12/13", 8.9, 9.4, 8.3
"2003/12/14", 9.1,10.0, 8.3
"2003/12/15", 9.0,10.4, 8.6
"2003/12/16", 8.5, 8.8, 8.0
"2003/12/17", 8.1, 8.3, 7.9
"2003/12/18", 7.7, 8.1, 6.6
"2003/12/19", 7.9, 8.6, 7.5
"2003/12/20", 7.4, 7.9, 6.7
"2003/12/21", 6.4, 7.1, 5.5
"2003/12/22", 6.6, 7.0, 6.2
"2003/12/23", 6.5, 7.0, 5.8
"2003/12/24", 6.8, 7.2, 6.5
"2003/12/25", 6.9, 7.4, 6.5
"2003/12/26", 7.0, 7.4, 6.7
"2003/12/27", 6.6, 7.0, 6.0
"2003/12/28", 6.2, 6.4, 6.0
"2003/12/29", 6.1, 6.6, 5.6
"2003/12/30", 6.3, 7.0, 5.7
"2003/12/31", 6.4, 6.9, 6.1
